Hourly Data Report for October 04, 2013

All times are specified in Local Standard Time (LST). Add 1 hour to adjust for Daylight Saving Time where and when it is observed.

GRISE FIORD CLIMATE
NUNAVUT

76°25'22.040" N
82°54'08.020" W
44.50 m
2402351
71971
NGC

Download Data

Hourly Data (October 2013)
Hourly Data Report for October 4, 2013
Temp Definition
°C
Dew Point Temp Definition
°C
Rel Hum Definition
%
Wind Dir Definition
10's deg

Wind Spd Definition
km/h
Visibility Definition
km
Stn Press Definition
kPa
Hmdx Definition


Wind Chill Definition


Weather Definition


TIME
00:00 -8.8 -15.6 58 3 43   101.17   -19 LegendNANA
01:00 -8.8 -15.6 58 4 39   101.26   -19 LegendNANA
02:00 -9.0 -15.9 57 4 24   101.29   -17 LegendNANA
03:00 -8.9 -15.6 58 2 11   101.32   -14 LegendNANA
04:00 -9.3 -15.8 59 33 6   101.37   -13 LegendNANA
05:00 -9.1 -15.5 60 5 19   101.38   -17 LegendNANA
06:00 -8.7 -15.5 58 4 44   101.27   -19 LegendNANA
07:00 -8.7 -15.5 58 35 28   101.37   -18 LegendNANA
08:00 -8.8 -15.1 60 16 7   101.42   -13 LegendNANA
09:00 -9.0 -15.8 58 3 13   101.41   -15 LegendNANA
10:00 -9.0 -15.6 59 30 11   101.44   -14 LegendNANA
11:00 -8.8 -15.3 59 4 20   101.43   -16 LegendNANA
12:00 -8.4 -15.7 56 1 19   101.47   -16 LegendNANA
13:00 -8.5 -16.0 55 36 20   101.48   -16 LegendNANA
14:00 -8.1 -15.5 55 17 7   101.50   -12 LegendNANA
15:00 -8.7 -15.6 57 15 6   101.53   -12 LegendNANA
16:00 -8.9 -15.9 57 7 6   101.56   -12 LegendNANA
17:00 -9.2 -15.8 59 12 4   101.54   -11 LegendNANA
18:00 -9.5 -15.7 61 16 6   101.54   -13 LegendNANA
19:00 -9.5 -15.8 60 2 22   101.56   -18 LegendNANA
20:00 -9.6 -16.1 59 2 13   101.54   -16 LegendNANA
21:00 -10.1 -16.3 60 35 11   101.51   -16 LegendNANA
22:00 -10.7 -16.7 61 16 4   101.52   -13 LegendNANA
23:00 -11.2 -16.9 63 8 15   101.50   -18 LegendNANA

Notes on Data Quality.

Legend

  • E = Estimated
  • M = Missing
  • NA = Not Available
  • ‡ = Partner data that is not subject to review by the National Climate Archives
Date modified: